Temp
19 19 18 18 18 18 19 19 19 19 19 19 20 20 20 21 21 21 21 21 22 22 22 23 23 24 24 24 24 24 25 24 23 24 26 29 30 29 29 29 29 29 28 28 28 29 30 30 31 30 31 32 32 33 31 31 31 31 32 31 28 29 30 30 31 31 30 31 30 29 29 29 28 28 29 29 30 30 30 30 30 30 30 30 30 29 27 26
19 19 19 19 19 19 19 19 19 19 19 19 20 20 20 20 21 21 21 21 21 22 22 23 23 24 24 24 24 24 24 23 23 26 28 30 30 29 29 29 29 29 28 29 29 31 31 31 31 31 32 33 33 33 32 31 30 31 33 31 29 31 31 31 31 31 31 30 30 29 29 28 28 29 29 29 29 30 30 30 30 29 29 29 29 28 27 27
19 19 19 19 19 19 19 19 19 19 19 19 20 20 20 20 21 21 21 21 21 22 22 23 23 23 24 24 24 24 22 22 25 29 30 30 30 30 29 29 29 28 29 30 31 32 32 32 32 32 32 33 33 33 32 31 31 31 32 31 31 32 32 31 31 30 30 29 29 29 29 28 28 29 29 29 29 30 30 30 30 29 28 28 28 28 27 27
19 19 19 19 19 19 19 19 19 19 19 19 20 20 20 20 21 21 21 21 21 22 22 23 23 23 24 23 24 23 21 24 30 31 30 30 31 31 30 29 29 28 29 30 31 32 32 32 32 32 32 33 34 33 33 32 31 32 32 32 33 32 31 31 30 30 30 29 29 29 29 28 28 29 29 29 28 29 31 31 30 30 29 28 27 28 28 27
19 19 19 19 19 20 20 20 20 20 20 20 20 20 20 21 21 21 21 21 21 22 22 23 23 23 23 23 23 22 22 28 32 31 30 30 31 31 30 29 29 28 29 30 31 31 32 33 32 32 33 33 34 33 34 33 32 32 33 33 33 32 31 31 30 29 29 29 29 29 28 28 28 28 28 29 27 27 30 31 31 31 30 28 27 28 28 28
19 19 19 19 19 20 20 20 20 20 20 20 20 20 21 21 21 21 21 21 22 22 22 23 23 23 23 23 23 21 24 30 32 30 30 30 30 30 29 29 28 28 29 30 31 32 32 32 32 32 33 33 34 33 34 34 33 32 33 33 33 32 31 30 30 28 29 29 29 29 28 28 28 28 28 29 28 28 30 31 31 31 30 29 28 28 28 28
19 19 19 19 19 20 20 20 20 20 20 20 20 20 21 21 21 21 22 22 22 22 23 23 23 23 23 22 22 22 27 32 31 30 30 30 30 29 29 28 28 28 29 31 32 32 32 32 32 33 33 33 34 33 34 34 33 32 33 33 32 32 31 30 30 29 29 29 28 28 28 28 28 28 28 29 29 29 30 31 31 31 31 29 28 27 28 28
18 19 19 19 19 20 20 20 20 20 21 21 21 21 21 21 21 21 22 22 22 23 23 23 23 23 23 21 23 27 30 32 30 29 30 30 29 29 28 27 27 29 30 32 33 33 33 33 33 33 33 34 34 33 34 34 33 32 32 32 32 32 30 30 30 29 29 28 28 28 28 28 28 28 28 28 29 29 30 30 30 30 30 29 27 27 28 28
18 18 19 19 19 20 20 20 20 21 21 21 21 21 21 22 22 22 22 22 22 23 23 23 23 23 22 21 26 31 31 30 29 29 29 29 28 28 28 27 28 30 31 32 33 33 33 33 33 34 33 33 33 33 34 33 32 33 33 33 32 32 30 29 29 29 28 28 28 28 28 29 28 28 28 29 29 29 30 30 29 29 29 29 28 27 28 28
18 18 18 19 19 19 20 20 20 21 21 21 21 21 21 22 22 22 22 22 22 23 23 23 23 22 21 23 28 32 31 29 28 28 27 27 28 28 28 29 29 30 32 32 33 33 33 34 34 34 33 33 33 33 34 33 32 33 33 33 32 31 30 29 29 29 28 28 28 28 29 29 28 28 29 29 29 29 30 29 29 29 29 29 28 28 28 28
18 18 18 18 19 19 20 20 20 21 21 22 22 21 22 22 22 22 22 22 22 23 23 23 23 22 21 24 29 31 30 28 28 28 27 26 27 28 29 30 30 31 32 32 33 33 34 34 34 34 33 33 33 34 34 33 33 33 32 32 32 31 30 30 29 29 29 28 28 28 29 29 28 28 29 29 29 29 29 29 29 29 29 29 28 28 28 29
18 18 18 18 18 19 20 20 20 21 21 22 22 22 22 22 22 23 22 22 22 23 23 23 23 22 22 26 30 31 30 28 28 28 27 27 28 29 29 29 30 31 32 33 33 33 33 33 33 33 33 33 34 34 33 33 33 32 32 32 32 32 31 30 30 29 29 29 28 28 27 28 29 29 29 29 29 29 29 29 29 28 29 29 29 28 28 29
18 18 18 18 18 19 19 20 20 21 21 22 22 22 22 22 23 22 22 23 23 23 23 23 23 21 23 28 31 30 29 28 28 28 27 27 28 28 28 29 30 30 31 32 33 33 32 32 32 33 33 33 34 34 33 33 33 32 32 31 32 32 31 30 30 29 29 28 28 28 25 27 30 30 29 29 29 29 28 29 29 28 28 29 29 29 29 29
18 18 18 18 18 19 19 20 20 21 21 22 22 22 23 22 22 22 22 22 22 23 22 22 22 21 24 30 31 29 29 28 28 28 28 28 29 28 28 28 29 29 30 31 32 31 31 32 32 33 33 33 34 34 33 34 33 33 32 31 32 29 28 31 30 29 29 27 28 28 25 28 32 30 29 29 29 29 29 29 29 28 28 28 29 29 29 29
18 18 18 18 18 19 19 20 20 21 21 21 22 22 22 22 22 22 22 22 22 22 22 21 22 23 27 31 30 29 28 28 29 29 29 30 31 30 29 29 29 29 29 30 31 31 31 32 32 32 33 34 34 33 34 34 34 34 29 27 31 29 28 32 30 30 31 28 28 28 26 30 32 30 29 29 28 29 29 29 29 28 28 28 28 29 29 30
18 18 18 18 18 19 19 20 20 21 21 21 22 22 21 21 21 21 22 22 22 21 21 22 22 24 28 31 30 29 29 30 31 30 29 30 32 32 30 29 30 29 29 30 31 31 31 32 32 33 33 33 33 33 33 31 31 34 30 25 28 28 29 32 30 30 31 29 29 28 27 31 32 30 29 28 28 29 29 29 29 28 28 28 28 29 30 29
18 18 18 18 18 19 19 19 20 21 21 21 22 21 20 20 21 21 21 21 21 21 20 23 24 25 28 31 30 30 31 31 31 30 30 30 31 31 31 31 31 31 31 31 30 31 32 32 32 33 33 33 34 34 29 25 25 30 31 28 28 30 29 29 30 31 30 30 30 29 29 31 32 31 29 28 28 28 29 29 29 28 28 28 28 29 30 29
17 18 17 17 18 19 19 19 20 21 20 21 21 20 20 20 21 20 20 20 20 20 20 22 25 26 28 31 31 32 32 31 30 30 30 30 31 31 32 32 32 32 31 31 31 32 32 33 33 33 33 33 34 33 26 24 26 26 27 27 28 30 29 29 31 32 31 30 31 31 30 31 32 32 29 29 28 28 29 29 29 29 28 28 28 29 29 29
17 17 17 17 17 18 19 19 20 20 20 20 20 19 19 20 20 20 21 21 22 26 27 26 27 28 30 31 32 32 31 30 30 31 31 31 31 32 33 33 33 32 32 32 32 32 33 33 32 31 31 33 34 33 30 30 31 29 29 28 27 28 29 32 33 33 33 32 32 32 31 32 33 32 30 29 29 29 29 29 29 29 29 28 28 28 29 29
17 16 16 16 17 18 18 18 20 20 19 19 18 19 21 23 24 24 23 23 26 30 31 30 30 31 31 32 32 32 31 31 31 32 32 31 31 32 33 33 33 32 32 33 32 33 33 31 31 30 32 34 34 34 33 34 33 32 32 30 29 28 29 34 35 33 33 31 32 34 32 33 33 33 32 30 29 29 29 29 29 29 29 29 28 28 28 29
16 16 15 16 16 18 18 18 20 19 19 19 18 21 27 29 29 29 27 27 29 31 31 31 31 31 31 32 32 32 32 32 32 33 31 31 33 32 32 32 32 32 33 33 32 33 32 30 31 33 34 34 33 33 33 33 33 33 31 29 29 29 30 35 34 32 31 30 31 34 32 32 33 33 32 31 30 29 29 30 29 29 29 29 29 28 28 29
16 16 15 15 17 17 18 19 20 20 19 19 18 24 29 29 27 27 28 30 31 30 30 30 30 30 30 30 31 31 31 32 32 32 31 31 33 32 32 32 32 33 33 32 32 31 30 30 33 35 34 33 33 33 33 33 33 33 32 30 27 30 32 33 33 32 31 30 31 33 31 32 34 34 33 31 30 30 30 30 30 30 30 29 29 29 29 29
16 16 15 16 17 17 18 19 19 19 19 19 21 26 28 27 26 26 27 30 31 30 30 30 29 30 30 30 30 30 31 32 32 32 32 31 32 33 32 32 32 33 32 32 32 29 28 31 34 34 33 33 33 33 33 33 33 33 32 28 27 31 31 28 30 32 32 31 32 32 31 32 34 33 33 32 31 31 30 30 31 30 30 30 30 29 29 29
16 17 16 17 17 17 18 19 18 18 19 20 23 26 26 25 25 26 27 30 31 30 30 30 30 30 30 30 30 30 31 32 33 33 32 32 33 33 33 33 32 32 32 33 33 30 30 32 34 33 33 33 32 33 33 32 31 33 34 30 28 32 31 29 32 34 33 31 32 31 28 29 33 33 33 32 31 31 30 30 30 30 30 30 30 30 29 28
17 18 18 18 18 18 18 18 18 19 19 21 24 25 25 24 25 25 28 30 30 30 30 29 30 30 30 30 30 31 32 32 33 33 33 33 33 32 33 33 32 32 33 32 32 32 32 34 33 33 33 33 32 33 33 32 29 30 34 34 32 33 33 33 34 33 29 27 30 31 24 25 31 33 33 32 31 30 30 30 30 30 30 30 30 31 29 28
19 19 20 19 19 18 19 21 21 20 22 25 25 25 24 25 25 25 28 29 28 30 31 29 30 30 30 30 31 32 31 31 33 33 33 33 34 33 32 32 32 32 32 33 32 32 33 34 33 33 33 33 33 32 34 34 29 27 32 35 34 34 33 33 33 29 25 25 31 32 25 23 28 31 33 32 31 30 30 29 30 30 30 29 30 30 30 30
21 22 22 21 20 19 21 23 22 21 25 27 25 24 24 25 25 25 27 26 25 30 32 31 30 30 30 31 32 31 29 31 33 33 33 33 33 34 32 33 33 32 33 32 29 30 33 33 32 33 33 33 32 32 34 35 29 27 33 35 34 34 33 33 33 29 27 29 30 32 28 24 24 28 33 32 31 31 30 30 30 30 30 29 30 30 30 30
22 23 22 21 21 20 21 22 22 25 26 25 24 25 25 25 25 27 26 22 25 31 32 31 30 30 30 31 32 32 31 32 32 32 33 33 33 33 32 33 33 32 34 31 26 30 34 33 32 33 32 32 33 33 35 35 32 31 34 34 34 34 34 34 32 29 30 29 25 27 29 24 23 28 32 32 31 31 31 31 30 30 30 30 30 30 30 30
23 23 23 22 21 21 21 21 23 26 25 23 25 25 25 25 26 29 26 22 27 32 32 31 30 30 31 31 31 32 32 33 32 31 33 33 32 33 32 33 33 32 33 32 29 32 34 33 33 33 32 33 34 35 35 34 34 34 34 34 34 34 34 34 33 29 28 26 22 25 27 24 23 27 30 31 30 32 34 33 32 31 30 30 30 30 30 30
24 23 22 22 22 21 21 22 23 25 24 25 25 25 25 27 27 26 23 24 29 31 31 32 31 31 31 31 31 32 32 33 32 32 32 32 32 33 33 33 33 33 33 33 32 33 34 34 33 33 33 34 35 35 34 34 35 34 34 34 34 34 34 33 32 29 25 23 24 26 27 25 23 26 30 31 31 34 36 35 33 32 31 30 30 30 31 30
24 23 23 23 23 22 23 25 25 24 25 25 25 25 26 28 29 24 22 27 29 30 32 32 32 32 32 32 32 32 33 33 32 32 32 32 32 32 32 32 32 32 31 32 32 34 34 33 33 34 34 34 35 34 34 34 34 34 34 33 30 29 30 28 27 27 24 22 24 27 29 26 22 25 32 35 35 36 35 35 34 32 31 31 30 30 31 31
24 24 23 23 23 23 25 26 25 24 26 25 25 28 28 27 26 23 25 28 27 28 32 31 32 32 32 33 33 33 33 33 32 33 33 33 32 33 32 32 32 28 25 27 30 31 34 35 35 34 34 34 34 33 33 33 34 34 33 30 25 24 24 23 23 24 23 23 26 28 28 25 24 28 35 37 37 36 35 35 35 34 32 31 31 31 31 31
24 24 24 24 24 24 24 25 25 25 26 25 26 30 29 25 23 24 27 28 26 29 32 31 32 32 31 32 32 33 33 32 33 33 33 34 33 33 33 33 34 29 26 27 27 26 29 34 35 34 33 34 34 32 29 30 33 33 31 27 24 23 23 23 23 23 23 23 26 29 27 24 25 31 36 37 36 36 35 35 35 35 33 32 31 31 31 31
25 25 25 25 25 25 25 25 25 25 26 26 28 30 27 23 24 26 28 29 30 31 32 31 32 32 32 32 32 33 32 31 33 33 33 33 32 32 33 33 33 32 30 28 26 25 24 27 32 34 33 33 35 34 32 33 34 34 35 32 26 24 23 23 23 23 23 24 25 27 26 23 24 30 36 37 36 35 34 34 34 34 34 33 32 31 31 31
25 25 25 25 25 25 26 25 25 25 26 29 31 29 24 22 25 27 28 30 31 32 32 32 33 32 31 32 33 33 32 31 33 33 33 33 31 31 32 32 32 33 31 27 26 27 24 24 33 35 33 34 35 35 36 35 32 34 37 32 26 28 27 24 24 24 23 23 24 24 25 27 31 35 38 37 36 36 34 33 33 33 33 33 33 32 32 32
25 25 25 26 25 25 26 26 26 25 26 30 31 27 25 25 27 28 29 30 30 31 32 31 32 30 28 30 32 32 32 32 33 33 32 32 31 31 31 32 31 32 31 28 28 28 23 25 34 35 33 36 35 35 36 33 30 32 32 28 30 35 32 25 23 25 24 23 24 24 25 29 32 34 37 36 35 35 34 33 33 33 33 32 32 32 32 32
25 26 27 27 26 26 26 26 26 25 28 32 29 25 28 29 29 29 30 30 30 31 31 28 29 29 26 27 30 32 32 32 32 31 29 30 30 29 31 31 31 31 31 30 29 30 26 25 33 36 33 35 35 34 36 35 34 32 28 29 34 35 33 28 23 23 23 23 24 24 24 25 25 28 34 37 35 34 34 34 34 33 32 32 32 32 32 32
26 27 28 28 26 25 27 26 26 27 30 32 28 26 29 30 29 29 29 30 30 31 31 28 28 30 28 26 28 32 32 29 30 30 28 29 28 28 30 30 30 31 31 30 29 32 29 25 30 36 34 34 36 34 32 34 36 34 31 34 33 27 26 26 23 23 23 23 23 24 24 24 24 26 33 36 36 36 35 34 34 33 33 32 32 32 32 32
27 29 29 28 26 26 27 26 26 30 32 31 28 28 29 29 29 30 29 30 30 30 31 30 29 31 30 29 29 32 32 29 31 30 28 28 28 28 30 30 30 31 31 31 31 32 32 26 25 33 35 34 35 33 29 30 34 34 34 36 34 29 26 26 25 25 23 23 23 23 23 24 27 32 35 35 36 36 35 35 35 34 34 33 32 32 31 31
29 30 30 28 27 27 27 27 29 32 31 29 29 29 29 29 30 30 29 30 30 30 31 31 31 30 30 31 30 31 32 31 32 31 29 29 28 28 30 29 29 31 30 31 32 32 33 28 24 30 36 32 31 32 31 31 32 32 30 30 30 30 30 28 27 26 24 23 23 23 23 24 30 36 37 36 36 35 36 35 35 35 35 34 33 32 31 31
29 30 29 28 27 27 28 29 30 31 30 29 29 29 28 28 29 30 30 30 30 30 30 30 31 30 30 30 30 30 32 31 31 31 30 30 28 27 29 29 29 30 30 31 32 31 31 29 25 26 29 27 30 35 35 34 34 33 31 30 30 30 28 25 25 26 26 24 23 24 22 24 32 36 36 36 35 35 35 35 35 35 35 33 32 31 31 31
30 30 29 28 27 28 30 30 30 30 30 29 28 28 28 27 29 29 29 30 30 30 30 30 29 30 29 29 30 30 31 31 30 30 30 30 29 28 28 29 28 30 31 31 32 30 29 29 26 24 27 30 33 35 34 34 35 34 33 34 34 32 27 23 22 24 25 24 25 24 22 26 34 36 35 36 35 34 35 35 35 35 34 33 32 31 30 30
29 29 28 28 27 29 30 30 29 29 29 28 27 28 28 27 28 29 29 29 29 29 30 29 29 29 29 29 30 30 29 29 29 30 30 30 30 28 28 28 28 30 31 31 31 30 29 29 25 24 28 32 34 34 34 35 35 33 33 34 34 32 30 28 27 27 25 24 25 24 22 27 33 33 34 34 33 35 34 33 35 35 33 32 31 30 30 29
28 28 29 28 28 29 30 29 29 29 28 27 28 27 27 27 27 27 28 28 28 29 29 28 28 28 28 28 29 29 28 27 27 29 29 29 29 28 28 28 28 30 30 29 29 29 27 28 26 23 24 26 27 29 30 32 33 32 32 34 33 33 33 32 30 29 25 23 25 24 22 26 32 33 34 34 34 35 34 33 34 34 32 32 31 30 29 28
27 28 29 29 29 29 28 28 29 29 27 27 27 27 27 27 26 26 27 27 27 28 28 28 27 28 28 28 29 29 28 27 27 28 29 29 29 28 28 28 28 29 29 27 28 29 28 28 27 23 22 22 23 23 25 27 30 31 32 33 33 33 32 30 27 25 24 24 25 24 23 28 34 34 34 34 34 34 33 33 33 33 32 32 31 29 28 28
28 27 28 28 29 29 27 27 28 28 28 27 27 27 27 27 26 26 27 26 26 27 27 27 27 28 28 28 28 28 28 28 28 28 28 29 29 28 28 28 28 28 27 26 28 29 29 29 28 25 23 24 24 25 28 29 28 28 29 31 32 33 32 30 26 23 24 25 24 25 26 28 32 33 32 32 32 32 32 32 32 33 32 31 31 29 28 28
26 25 25 25 27 27 27 27 27 27 27 27 26 26 26 26 26 26 26 26 26 26 26 27 27 27 27 27 27 27 27 28 28 27 27 28 28 28 28 28 28 27 26 27 29 30 28 27 28 28 26 27 29 29 31 31 28 27 28 29 31 32 32 29 26 26 28 25 22 27 29 26 29 33 31 30 31 30 31 32 33 32 31 31 30 29 29 28
25 24 23 23 24 26 26 25 26 26 26 26 25 25 26 26 26 25 26 26 26 26 26 26 26 26 26 25 26 26 26 26 26 26 26 26 27 27 28 29 29 27 27 28 29 29 27 25 28 29 27 29 32 31 31 31 30 30 29 29 30 31 31 28 27 30 30 25 24 29 29 28 31 33 31 29 30 29 30 32 32 32 31 31 30 29 29 29
24 24 23 23 23 24 24 24 25 26 25 25 25 24 25 25 25 24 25 25 25 25 25 25 25 25 25 25 25 25 25 24 24 25 25 25 25 26 27 28 28 28 28 28 28 28 26 25 28 29 27 28 30 31 31 31 29 29 30 30 31 31 31 30 30 32 31 28 29 32 30 30 31 30 29 30 29 29 29 30 31 31 30 30 30 30 30 29
22 22 22 24 25 24 24 24 24 25 25 24 24 24 24 24 24 24 24 24 24 24 24 25 24 24 25 24 24 25 24 23 23 24 24 24 24 25 26 26 27 27 27 27 27 28 25 25 28 28 25 26 29 30 31 30 29 28 28 31 32 31 31 31 30 31 30 29 31 31 29 30 30 29 29 29 29 30 30 29 30 31 30 30 30 30 30 30
19 18 18 22 24 23 23 24 24 25 25 24 24 23 23 23 23 23 24 23 23 24 24 24 24 24 24 24 24 24 24 23 23 24 24 24 24 25 25 25 26 26 26 26 26 26 26 26 28 27 23 23 27 29 29 30 29 27 26 29 30 30 30 30 30 29 28 27 28 27 26 28 29 28 29 29 30 30 30 30 30 30 30 30 30 30 30 30
18 18 17 21 23 22 23 24 24 25 24 23 22 22 22 23 23 23 23 23 23 23 23 23 23 23 24 24 23 24 24 23 23 24 24 24 24 24 24 25 25 24 24 25 25 25 26 25 25 25 22 22 27 28 28 27 25 24 26 29 31 31 31 30 29 29 28 28 27 26 26 27 28 27 28 29 29 29 30 30 30 30 30 30 30 31 30 30
Height
813 811 810 809 808 806 805 804 803 801 800 799 798 797 796 795 794 794 793 792 791 790 790 789 789 789 788 788 788 788 787 786 786 785 782 776 775 777 776 777 777 778 781 783 784 783 783 783 783 783 782 780 780 780 780 779 779 783 790 796 798 799 799 797 795 793 794 793 790 790 789 792 796 791 784 783 784 784 785 786 784 783 781 782 784 786 791 795
812 811 810 808 807 806 805 803 802 801 800 798 797 797 795 794 794 793 792 791 790 789 789 788 788 788 788 788 787 787 786 785 785 782 776 772 773 774 774 775 777 778 780 782 782 781 782 782 781 782 781 781 780 780 782 781 782 788 791 796 798 797 794 790 790 789 790 792 791 789 788 791 794 789 783 789 793 787 789 790 787 789 787 785 786 789 793 795
812 811 809 808 807 805 804 803 801 800 799 798 797 796 795 794 793 792 791 790 789 788 788 788 788 787 787 787 786 787 786 785 783 777 771 770 771 771 773 774 775 777 779 781 781 780 780 780 780 781 783 784 780 781 784 782 784 787 791 797 795 791 789 785 787 788 787 789 790 790 788 790 790 785 785 790 793 789 790 790 789 793 792 790 789 790 793 795
811 810 809 807 806 805 803 802 801 799 798 797 796 795 794 793 792 791 790 789 788 788 787 787 787 787 787 786 786 787 785 786 780 771 769 770 769 770 772 773 774 777 779 780 780 780 780 780 780 781 785 786 781 781 784 783 785 785 789 795 790 787 790 787 786 786 785 787 789 790 789 792 787 784 787 790 799 799 788 784 785 788 789 790 790 790 792 794
811 809 808 807 805 804 803 801 800 798 797 796 795 794 793 792 791 790 789 788 787 786 786 786 786 786 786 786 787 785 786 790 778 768 771 770 769 770 771 773 774 777 779 781 780 780 781 779 780 783 786 787 783 783 784 779 781 786 785 786 784 785 791 788 784 786 785 786 788 790 791 791 786 786 787 790 804 803 786 780 779 780 783 786 789 790 791 793
810 809 807 806 804 803 802 800 799 798 797 795 794 793 792 791 790 789 788 787 786 785 785 785 785 785 786 786 786 785 789 789 775 769 772 770 770 770 771 773 774 777 779 780 779 779 780 780 783 787 787 787 786 786 784 777 779 789 785 780 781 783 788 787 784 787 785 787 790 790 789 787 788 791 787 788 795 791 780 778 776 776 780 783 787 790 791 793
810 808 807 805 803 802 801 799 798 797 795 794 793 792 791 790 789 788 787 786 785 784 784 785 785 785 785 786 786 785 785 780 770 770 772 769 771 770 772 774 774 778 779 778 778 779 780 782 786 786 787 788 787 786 783 778 779 789 789 783 783 782 786 786 784 786 785 788 789 786 787 788 792 793 788 788 787 781 778 775 775 777 778 783 787 790 791 792
808 807 806 804 803 801 800 799 797 796 794 793 792 791 790 789 788 787 786 785 784 784 784 784 785 785 785 786 785 783 780 774 769 771 770 770 771 770 773 774 776 778 777 778 777 777 779 784 785 783 789 789 785 785 782 781 783 788 790 785 783 782 784 784 784 786 786 787 786 786 790 789 789 790 789 789 784 779 777 776 777 778 780 784 788 790 791 792
808 806 804 803 802 800 799 797 796 795 793 792 791 789 788 788 787 786 785 784 783 784 783 784 785 784 786 785 783 784 778 771 770 771 770 770 771 771 774 774 776 777 777 778 775 776 779 782 782 780 787 786 783 785 781 786 790 786 785 783 783 784 784 785 786 787 787 786 786 789 792 789 785 787 790 786 782 779 776 778 780 781 783 785 788 790 790 791
807 805 803 802 800 799 797 796 795 793 792 791 789 788 787 786 786 785 784 783 783 783 783 784 785 784 786 784 784 785 775 769 771 771 770 771 771 772 774 774 776 776 776 777 775 776 777 778 777 775 782 783 783 784 781 787 788 781 782 782 782 784 783 785 787 787 787 787 787 791 792 788 784 789 793 785 779 778 779 782 782 783 786 786 788 789 789 791
806 804 803 801 799 798 796 795 794 792 791 789 788 787 786 785 785 784 783 783 782 782 783 784 784 785 786 784 785 782 771 770 772 771 772 772 772 774 775 775 775 776 776 776 776 775 775 775 773 775 783 783 782 783 781 782 782 779 782 784 783 784 784 784 787 787 787 788 787 788 791 788 786 790 791 783 778 779 781 784 783 785 786 785 787 789 789 790
805 803 801 799 798 796 795 794 792 791 789 788 787 786 785 784 784 783 782 782 782 782 783 783 784 785 785 784 781 775 769 772 772 772 773 772 774 775 775 776 776 776 776 775 776 775 776 776 775 781 783 781 784 786 783 778 779 781 783 789 787 783 787 786 786 786 787 790 784 787 796 795 791 789 784 779 779 780 783 785 784 786 787 785 786 788 789 789
804 802 800 798 796 795 794 792 791 790 788 787 786 784 784 783 782 782 782 782 781 781 782 783 784 784 786 783 774 770 770 771 772 772 773 773 775 775 775 777 777 777 777 776 776 776 779 778 778 780 778 781 786 783 780 775 779 784 784 791 789 785 790 786 784 786 788 789 783 788 800 795 788 784 779 778 778 782 786 786 785 786 787 786 785 786 787 787
802 800 798 797 795 794 792 791 790 788 786 786 784 783 782 781 781 781 781 781 781 781 782 783 784 785 786 779 768 769 770 770 772 772 773 774 774 775 776 777 777 778 778 777 777 778 779 778 779 779 778 780 780 777 780 779 781 786 787 790 789 792 795 786 783 786 790 788 781 791 799 788 783 781 778 777 777 782 787 785 786 787 788 787 786 786 786 786
800 799 797 795 794 792 790 789 788 786 785 784 782 782 780 780 781 780 781 781 780 781 782 783 784 784 784 776 767 768 769 770 771 771 772 773 773 774 775 777 778 778 779 778 779 779 779 779 781 784 780 776 778 784 787 784 782 785 793 795 788 790 792 784 782 783 788 788 782 792 797 784 780 780 777 777 777 781 785 785 785 787 787 788 787 785 786 786
799 797 795 793 792 790 789 787 786 785 784 783 781 780 779 780 780 780 781 780 781 782 782 785 784 784 785 776 767 768 769 768 769 770 772 772 772 772 774 777 777 778 779 778 779 779 778 779 780 781 780 781 784 789 790 790 787 784 792 798 790 789 790 785 784 779 781 786 785 792 795 786 780 778 777 776 778 781 783 783 784 787 787 787 788 785 785 786
796 795 793 791 790 788 787 786 785 784 783 782 780 780 780 780 780 781 781 781 782 782 782 784 782 784 781 770 768 769 765 766 768 769 771 772 772 773 774 775 775 777 777 778 779 778 778 780 782 782 782 784 784 787 799 804 795 786 787 792 789 788 789 788 787 781 778 785 787 788 791 787 778 776 777 777 778 781 782 783 783 785 786 786 786 784 784 786
794 792 790 788 787 786 785 784 783 782 782 781 780 780 781 781 781 782 782 782 783 783 785 784 783 788 782 769 768 768 763 766 767 768 771 772 773 773 773 772 773 775 778 780 780 779 781 780 782 787 786 787 786 791 804 803 794 794 794 793 791 787 786 785 785 780 778 784 786 785 787 783 774 773 776 775 776 779 780 781 781 782 784 785 785 784 784 785
792 789 788 786 785 784 783 782 781 781 781 781 781 781 781 782 782 782 783 783 782 782 783 780 779 784 780 769 764 763 763 766 767 768 770 770 772 772 771 771 772 775 782 786 785 781 782 784 789 795 793 789 787 787 793 791 789 795 794 794 795 790 785 780 778 775 774 783 784 781 782 777 772 771 773 773 773 777 778 778 779 780 781 783 785 785 784 784
789 787 785 783 782 781 780 780 780 780 781 781 782 782 782 781 781 782 781 780 775 770 770 770 768 770 770 765 762 763 765 766 767 767 769 770 771 772 772 772 774 778 783 786 786 779 781 792 796 794 790 784 782 783 784 784 787 792 792 792 789 788 784 776 775 774 773 783 781 773 776 774 770 767 768 770 771 775 777 777 779 779 780 781 783 784 783 783
786 784 782 780 780 779 779 778 778 779 780 780 782 781 777 775 778 779 776 773 766 762 764 763 762 765 766 764 762 763 765 767 765 764 768 769 768 775 776 775 782 786 782 782 783 780 785 798 793 782 780 779 781 783 784 786 788 790 792 791 787 785 781 772 775 776 775 785 780 770 775 774 767 764 763 766 771 773 772 774 777 777 778 778 779 782 782 780
783 781 779 778 777 777 777 776 776 777 778 779 780 777 771 770 774 773 772 772 765 760 763 762 763 765 763 764 764 764 767 771 769 766 767 767 769 776 777 778 786 785 780 783 787 789 794 794 783 774 775 779 782 782 785 788 789 789 788 789 788 782 776 773 777 777 777 784 779 771 776 772 763 760 759 762 766 768 766 767 770 772 775 777 777 780 780 780
781 778 777 776 775 775 775 774 775 775 776 778 778 774 771 771 771 770 772 774 770 763 763 764 766 766 765 765 764 765 771 772 772 769 764 768 771 772 776 781 784 782 783 787 790 794 795 786 775 773 775 781 785 783 786 788 786 787 785 786 787 779 779 783 781 777 776 779 777 776 778 769 760 759 758 759 761 761 763 763 764 767 770 772 772 774 777 778
778 775 775 773 773 773 772 773 774 774 775 775 775 773 771 772 771 772 772 771 771 765 761 762 762 763 765 763 762 766 771 768 768 767 763 767 771 771 775 778 782 786 785 784 786 791 789 778 772 776 779 782 786 785 786 789 785 780 778 783 784 778 780 781 776 773 772 775 776 777 779 766 759 765 761 756 759 760 761 763 764 765 765 767 767 768 773 777
775 774 772 771 771 771 771 773 772 772 774 773 773 771 771 772 770 771 773 773 775 768 762 762 762 762 760 761 762 763 767 767 764 763 760 763 767 773 776 774 780 787 784 782 787 789 782 772 771 780 782 781 786 785 782 785 784 777 774 776 778 778 779 776 774 775 778 781 776 777 792 782 761 766 766 758 762 764 761 763 765 765 764 765 767 766 769 774
774 772 770 770 770 770 771 772 770 772 773 771 771 770 770 772 769 771 774 776 778 771 767 766 765 765 761 762 761 759 771 773 760 757 760 762 761 767 777 776 778 784 781 781 784 783 777 770 772 781 782 781 786 785 778 778 784 782 773 770 774 776 778 776 775 780 785 785 775 773 795 796 771 766 765 759 764 765 762 764 763 763 764 764 766 765 766 768
772 770 769 769 768 769 770 769 770 772 770 770 770 769 771 770 769 771 776 785 786 773 768 767 765 765 762 760 758 764 781 774 759 760 760 762 762 763 777 780 779 782 777 781 789 781 775 776 779 781 781 783 784 782 774 773 783 782 770 769 774 775 777 775 774 778 777 775 774 770 781 792 779 765 760 758 764 765 762 764 761 759 761 762 762 763 763 764
771 769 768 767 767 768 768 768 771 769 768 769 768 769 770 768 770 772 781 801 794 768 764 766 762 760 759 759 758 766 773 765 768 771 757 760 765 765 778 779 777 780 774 784 794 779 771 779 781 779 783 783 778 772 767 771 780 774 766 770 772 773 775 772 772 774 771 777 785 774 773 789 781 761 757 760 762 765 762 759 759 757 757 759 759 760 760 760
770 769 768 767 767 768 768 769 770 768 769 769 768 770 768 767 771 772 784 802 788 764 763 765 762 762 761 763 764 765 764 762 771 769 757 763 764 765 777 774 772 779 774 779 787 776 769 771 771 775 781 779 770 764 763 770 775 767 766 770 769 771 771 769 773 771 773 788 791 774 772 789 783 758 754 762 762 759 754 749 751 752 753 755 756 757 757 758
770 768 768 767 767 768 769 769 769 769 769 768 769 769 767 770 775 783 798 798 780 768 764 762 765 767 767 771 772 767 766 767 767 765 764 767 765 765 769 766 769 777 776 775 778 773 765 762 765 771 774 769 763 762 763 766 768 765 769 772 770 770 768 771 772 770 784 796 785 771 769 783 788 763 747 754 755 747 744 744 746 748 750 752 753 753 754 756
770 769 769 768 768 769 768 768 768 769 768 767 769 766 769 774 775 789 802 787 773 772 766 765 769 768 768 773 774 770 769 769 767 770 774 772 772 774 773 773 775 779 780 777 774 769 764 766 767 764 760 759 763 766 765 763 764 768 772 773 777 776 773 779 777 779 800 802 780 769 765 776 791 771 745 743 742 738 741 742 744 747 748 749 750 751 750 752
771 770 769 769 769 769 768 768 768 768 767 767 767 765 773 782 782 789 789 776 778 779 770 771 772 768 771 771 771 770 770 772 769 770 774 774 777 777 777 779 778 786 790 781 775 772 766 762 759 757 755 757 767 772 769 767 767 771 773 777 789 791 789 797 792 789 800 793 772 767 770 779 781 760 743 739 735 734 736 736 737 741 744 746 747 748 748 748
772 771 770 770 769 769 769 768 767 767 766 765 766 767 775 790 794 789 779 776 783 776 768 772 770 769 773 773 773 770 769 774 771 769 771 771 775 775 773 773 772 785 792 782 782 781 771 760 755 762 761 754 763 771 773 771 768 771 773 777 791 797 804 810 796 790 795 783 767 765 773 781 771 751 740 735 732 731 731 731 733 734 737 742 743 744 746 746
772 771 771 770 769 769 768 767 766 766 765 764 767 773 783 795 794 785 779 777 775 769 768 772 770 771 773 772 772 768 772 777 770 771 774 773 779 778 774 774 773 779 783 783 784 783 786 780 764 763 763 756 759 761 761 763 764 764 759 765 780 784 797 805 791 789 792 779 770 771 777 779 769 752 736 728 728 729 730 731 731 731 733 735 738 741 744 745
772 771 770 769 769 768 767 766 766 764 764 764 768 777 789 794 789 782 781 777 773 771 769 767 768 774 775 772 770 767 771 777 771 771 775 775 780 781 778 779 777 776 782 787 783 778 788 784 760 753 755 755 758 752 749 760 768 761 753 766 778 768 773 785 780 779 783 781 778 775 772 761 747 736 725 724 728 726 730 733 732 734 734 734 738 740 742 744
772 771 770 770 770 768 766 765 764 763 763 764 773 783 788 789 786 782 780 777 776 775 773 771 770 774 777 775 773 770 768 771 771 774 778 777 780 783 782 780 778 777 781 786 783 780 787 778 755 753 755 750 753 751 748 759 768 764 764 771 765 751 759 776 780 773 778 791 784 769 766 753 740 738 729 729 734 730 731 734 733 735 735 737 740 739 740 742
772 771 770 769 768 767 765 764 763 763 762 764 778 788 786 783 783 781 778 776 775 774 775 778 776 776 778 777 776 773 770 771 772 775 780 783 784 786 784 781 778 778 778 781 782 778 785 781 757 753 760 751 747 751 749 749 755 765 771 764 752 752 759 771 785 785 785 794 781 764 768 764 759 759 741 732 739 739 735 734 734 735 737 739 739 738 739 738
771 770 769 768 768 766 764 763 762 761 761 768 785 790 784 781 780 778 777 775 775 775 775 778 778 776 776 777 777 774 771 775 776 776 780 784 787 787 785 783 780 776 773 778 781 775 780 786 765 752 761 755 744 753 760 752 748 756 758 752 757 774 775 774 788 793 791 796 784 768 766 763 760 756 742 735 738 738 736 734 734 736 736 737 738 738 739 738
770 769 769 769 768 765 763 763 761 759 763 776 788 789 783 782 779 775 775 775 775 776 776 777 776 775 774 776 778 775 773 775 774 776 781 784 788 786 782 783 781 776 772 774 779 774 774 788 781 757 753 755 751 756 765 760 753 753 754 752 757 769 773 772 775 777 784 793 789 780 774 764 751 741 738 739 735 732 735 734 733 734 733 734 736 737 738 739
768 769 772 769 766 765 763 761 760 763 772 781 785 785 784 782 779 775 773 773 775 777 778 778 776 777 779 778 777 776 775 775 773 776 780 782 787 788 782 783 783 778 774 771 774 774 772 785 789 766 751 758 761 757 757 758 758 759 761 761 761 761 762 767 767 762 771 785 788 789 787 767 742 733 734 735 733 730 730 731 732 730 729 731 733 735 737 738
768 772 773 767 766 765 761 764 769 772 778 783 784 785 786 784 781 777 773 772 774 774 775 778 778 780 783 781 779 779 777 777 776 777 781 781 786 789 785 783 784 780 777 775 774 776 777 782 786 778 767 767 762 750 748 753 755 757 758 758 759 759 763 777 781 765 761 773 775 781 788 766 736 729 729 727 730 729 726 727 729 728 728 730 733 734 736 737
770 777 775 767 767 764 762 772 777 776 779 785 787 787 787 785 783 781 777 774 775 774 773 778 781 782 785 784 782 782 780 781 782 780 782 783 784 788 785 781 781 778 777 778 775 775 779 781 784 782 772 765 757 747 747 749 749 752 755 753 754 757 761 776 785 771 763 767 762 767 781 762 732 726 727 725 727 726 725 727 726 726 728 730 732 734 735 737
776 779 774 768 767 763 766 780 782 780 785 788 787 786 786 787 785 783 781 780 780 779 779 783 784 784 787 786 784 784 784 786 787 784 784 785 784 786 784 781 781 777 775 780 778 776 779 782 786 783 768 757 754 750 747 745 747 756 758 754 757 760 758 762 767 764 766 769 762 770 782 762 736 730 729 727 727 725 726 727 725 727 729 730 734 735 736 738
779 778 772 770 768 763 772 785 785 786 791 788 788 790 788 789 790 789 788 788 786 785 786 788 788 786 787 786 785 787 788 789 790 786 786 787 786 784 782 781 782 780 779 784 783 781 784 784 787 792 786 777 773 770 763 754 754 761 762 758 759 759 759 761 759 762 770 767 761 772 779 759 739 734 730 728 729 727 728 728 725 728 731 731 734 735 737 740
780 780 776 772 768 768 778 785 783 787 792 791 793 795 792 792 794 792 792 792 789 788 789 791 789 788 787 786 787 787 787 789 790 788 787 786 784 783 783 783 783 781 782 785 782 781 785 784 786 797 802 799 796 791 781 770 766 764 762 761 760 759 763 765 764 770 776 766 760 769 770 751 738 737 735 733 734 733 733 731 728 728 730 731 734 737 739 740
783 787 785 779 773 775 782 784 782 787 792 793 796 797 795 797 796 791 791 794 792 790 792 792 789 789 789 789 791 792 789 788 790 790 789 788 786 785 783 783 783 783 784 785 780 779 784 784 783 790 794 791 789 784 775 772 774 771 767 766 763 759 761 764 767 772 770 765 765 764 759 751 745 745 746 744 742 742 739 735 733 732 732 733 734 737 738 740
788 796 797 793 788 786 788 788 788 791 792 794 799 801 799 798 797 794 793 795 795 793 794 794 792 794 796 796 796 796 793 791 791 793 793 792 789 786 783 781 783 784 785 783 778 779 787 787 781 781 783 777 774 773 770 771 775 774 771 769 765 760 761 765 769 766 761 768 772 760 756 760 753 749 753 752 748 748 743 737 736 735 734 734 735 737 739 740
794 801 801 800 801 798 797 797 796 795 794 796 800 803 801 800 801 801 799 796 795 795 796 798 798 798 800 801 801 800 798 797 796 796 796 795 793 790 786 781 781 783 783 781 778 780 790 790 778 776 778 773 768 769 769 770 772 770 769 768 765 762 762 765 765 758 757 769 768 755 756 760 752 749 754 752 749 749 745 738 734 734 735 735 736 739 740 741
797 801 800 799 802 802 802 802 799 798 799 801 803 805 805 804 806 806 803 801 800 799 799 802 803 801 800 801 802 803 804 804 803 802 801 800 798 796 793 788 783 781 782 783 781 782 790 789 779 777 779 774 770 768 766 768 770 768 767 764 761 759 759 761 760 755 757 762 756 750 755 755 751 753 753 749 747 745 742 739 736 736 738 737 737 739 740 741
803 805 804 800 800 803 803 802 801 800 801 803 806 809 808 808 809 808 805 806 807 805 803 805 806 803 802 803 804 804 805 806 807 806 804 804 802 798 796 794 788 785 786 788 786 784 790 789 780 780 785 779 771 767 764 766 768 768 765 761 757 758 758 757 757 757 759 759 754 755 759 755 751 751 750 747 744 741 742 742 740 738 738 738 739 739 739 740
811 811 810 805 805 807 805 803 802 801 803 806 809 811 811 811 812 811 808 807 809 808 807 807 808 805 803 804 805 804 802 803 805 803 801 803 802 798 797 794 792 793 794 793 791 789 791 790 782 784 792 784 770 767 766 764 764 766 765 760 756 756 756 756 757 760 762 763 762 761 760 757 753 751 749 747 744 743 743 742 741 741 739 739 740 739 739 740
813 812 811 808 808 808 806 803 802 803 808 812 812 812 813 812 811 811 811 809 808 808 808 808 809 808 806 806 806 804 802 802 802 800 798 798 797 795 796 793 792 797 798 796 796 793 791 793 788 788 794 786 770 767 768 770 775 774 762 754 750 749 753 756 759 762 762 763 765 763 760 759 756 753 752 750 748 747 746 743 742 742 741 740 740 738 738 738
Wind_Speed
12 12 12 12 12 12 12 12 12 12 12 12 12 12 12 11 10 10 9 9 9 10 10 9 9 9 9 9 9 9 10 11 9 9 13 14 13 13 13 10 9 14 13 8 11 11 8 8 5 4 5 3 2 2 1 2 2 4 3 3 4 5 6 7 8 7 6 7 7 4 3 4 1 4 4 4 4 5 6 5 5 6 6 7 11 16 19 21
12 12 12 12 12 12 12 12 12 12 12 12 12 12 12 12 12 11 10 10 10 10 10 9 9 8 8 8 8 9 10 10 10 14 17 15 13 14 12 15 14 10 14 13 13 12 8 6 5 5 4 3 1 1 1 1 2 4 4 3 4 6 6 5 7 6 6 7 7 5 2 2 1 2 3 4 5 7 6 6 7 7 8 9 13 16 18 20
13 13 12 13 13 13 13 13 13 12 12 12 13 12 12 12 12 12 11 11 11 11 10 9 8 7 7 7 7 8 9 9 11 9 8 7 10 15 12 13 15 11 15 14 12 11 6 3 5 5 4 3 0 1 3 1 1 2 3 3 5 6 6 4 5 5 5 6 7 5 2 2 2 1 2 3 4 6 5 6 6 7 10 10 12 14 17 19
13 13 13 13 13 13 13 13 13 13 13 13 13 13 13 13 13 12 12 12 12 12 10 7 7 7 6 6 6 6 6 8 5 3 3 1 1 11 14 13 13 13 13 11 10 7 4 3 5 4 5 4 1 3 4 1 1 3 2 5 7 5 5 5 4 3 3 4 5 5 3 2 1 2 3 3 2 3 2 4 4 6 11 12 13 14 16 18
14 14 14 14 14 14 14 14 14 14 14 13 13 13 13 13 13 13 12 12 12 11 8 6 6 6 5 5 4 4 5 4 2 5 2 1 2 8 15 13 13 14 12 10 9 7 6 5 5 4 5 4 2 3 2 2 3 4 2 5 6 4 5 5 3 2 2 3 4 4 3 1 1 3 4 3 3 1 1 2 3 5 10 12 14 14 15 17
14 14 14 14 14 14 14 14 15 15 15 14 13 13 13 13 13 13 12 12 12 10 6 5 5 5 4 2 2 2 6 2 4 2 2 1 2 7 15 13 14 15 12 12 10 8 8 6 6 5 5 4 4 3 5 4 3 4 1 4 6 4 4 3 2 1 2 4 4 3 2 1 2 2 2 4 3 1 1 0 3 7 9 11 14 14 14 16
15 15 15 15 15 15 15 15 15 15 15 14 14 13 13 13 13 13 12 12 10 7 5 5 5 5 3 0 1 3 8 4 3 3 5 3 2 8 14 13 15 16 14 14 12 10 8 7 8 5 6 5 3 4 6 4 3 4 4 6 6 4 2 1 0 0 2 3 4 3 2 2 3 0 1 3 2 1 1 2 5 8 10 12 14 14 14 15
16 16 16 16 16 16 15 16 15 15 15 15 15 14 13 13 13 13 12 12 8 5 5 5 4 5 2 2 3 5 7 2 3 5 6 1 4 12 15 14 16 16 15 15 13 11 8 8 8 5 6 3 3 4 6 5 3 3 5 5 4 2 0 1 1 1 1 2 2 3 3 2 1 1 1 2 3 3 3 5 8 9 11 12 13 14 14 14
18 17 17 16 17 17 16 16 16 16 16 15 15 14 13 13 13 12 12 10 6 5 5 4 5 5 4 3 6 5 2 5 5 5 3 2 9 16 16 15 17 17 15 14 13 11 8 7 7 5 6 4 4 5 6 5 1 2 6 5 4 2 1 2 2 1 1 1 2 4 3 1 1 2 2 3 4 4 5 7 9 9 11 12 13 13 13 13
18 18 18 17 17 17 17 16 16 17 16 16 15 14 14 13 13 12 10 8 6 5 5 5 5 6 4 4 7 4 4 8 6 4 3 6 14 19 14 14 18 16 14 13 12 11 8 6 4 3 6 5 4 5 4 5 4 4 6 5 3 2 2 3 3 2 1 0 2 4 3 2 2 3 3 5 6 6 7 8 9 9 10 12 12 12 12 13
19 18 18 18 18 18 17 17 17 17 17 16 15 14 14 13 12 11 8 6 5 5 5 5 6 7 4 6 7 2 5 6 6 7 4 10 16 17 12 14 17 14 12 12 12 11 9 5 3 3 3 2 3 4 2 4 5 4 5 5 3 3 4 4 4 2 2 1 1 4 5 3 4 3 2 6 7 8 8 9 10 8 9 12 13 12 11 12
20 19 18 19 19 18 18 17 17 17 17 16 16 15 14 13 11 8 6 5 6 5 4 5 8 7 3 7 8 3 3 2 3 5 6 11 13 11 9 13 14 11 11 10 11 10 8 4 4 7 2 2 5 4 2 3 5 3 4 6 5 6 6 5 4 2 2 1 1 4 5 5 8 5 5 8 8 8 8 9 10 9 9 11 13 12 11 12
20 19 19 19 19 19 18 18 17 17 17 16 16 15 14 13 9 5 4 5 5 5 4 5 8 7 4 6 3 3 4 4 4 1 8 9 8 6 8 11 10 8 8 8 8 7 6 4 6 7 4 5 5 3 3 3 4 3 4 6 7 6 4 5 4 3 4 2 2 4 3 2 7 8 8 9 9 9 9 9 9 9 8 9 11 11 11 12
20 20 19 19 19 19 19 17 17 17 17 16 16 15 14 10 6 3 3 4 4 4 4 7 9 6 6 4 1 4 7 4 3 5 9 9 8 7 8 9 8 6 5 5 3 2 6 6 6 7 5 7 4 3 6 6 3 5 5 4 5 4 2 6 5 4 4 3 4 6 4 3 5 9 10 9 10 10 9 10 10 9 9 9 9 10 10 12
21 20 19 19 19 19 19 17 16 16 16 15 15 15 11 6 3 3 3 3 3 4 6 7 8 5 6 5 2 3 4 4 7 9 10 10 9 8 9 9 7 6 5 4 2 1 4 7 7 6 4 4 5 6 8 5 4 5 5 4 3 2 2 6 6 4 3 2 6 6 4 3 4 8 10 9 10 11 9 10 10 10 10 10 9 10 10 11
20 20 19 19 18 18 18 17 16 15 15 14 14 11 4 2 2 2 2 3 5 9 9 5 7 6 6 2 3 2 3 5 7 9 10 9 5 6 10 9 7 6 5 4 3 2 3 7 6 5 4 4 6 7 6 6 5 4 4 4 2 3 3 2 6 5 3 2 7 7 5 6 2 8 9 9 10 11 10 10 11 11 11 11 9 10 9 10
21 20 19 19 18 17 17 16 15 13 13 12 10 3 3 3 3 4 6 9 9 10 5 1 5 5 5 1 2 3 4 6 7 9 10 7 4 8 11 8 7 7 7 6 5 4 5 6 4 4 6 6 5 5 5 6 3 3 2 3 2 4 5 2 3 5 5 4 5 7 7 8 2 6 9 10 11 11 10 10 12 11 10 11 10 10 10 10
21 20 19 19 17 16 16 14 13 11 10 7 2 5 7 6 8 8 8 10 9 6 2 2 3 4 4 4 2 3 5 5 7 9 10 8 7 8 7 6 7 9 8 7 6 7 6 6 5 5 6 6 6 6 6 4 4 3 4 5 5 5 6 5 3 1 4 6 7 7 8 9 7 6 9 10 12 12 11 10 11 11 11 11 10 10 10 10
21 20 19 19 16 15 14 13 11 8 5 2 7 10 9 8 7 4 4 5 4 3 1 4 6 3 2 5 2 4 4 5 8 9 10 10 9 7 5 5 7 8 7 7 8 8 6 5 6 6 7 7 7 7 7 7 8 8 8 8 8 8 6 5 6 2 3 7 8 9 9 9 8 6 9 11 12 13 12 11 10 10 11 11 10 10 10 11
21 19 18 17 15 14 13 11 9 5 1 8 9 6 5 3 3 4 6 7 8 7 4 3 8 4 2 4 3 3 3 5 6 7 11 11 10 8 6 6 7 8 7 5 6 6 4 6 7 7 8 6 4 5 8 9 9 10 10 10 10 9 6 5 5 2 2 6 8 9 10 10 9 7 9 11 12 13 13 13 11 11 11 11 12 12 12 12
21 19 18 16 14 13 11 9 8 4 5 12 9 4 2 2 3 0 2 8 11 10 8 5 6 6 2 1 2 1 2 5 5 7 11 11 11 9 7 7 7 7 6 3 3 4 4 7 9 8 6 4 4 5 8 10 10 11 9 9 9 7 7 6 4 1 2 4 7 8 10 11 9 7 9 12 14 14 15 14 13 14 13 12 13 14 13 11
21 19 17 15 13 11 8 7 7 4 6 14 10 7 4 4 3 3 3 6 7 7 9 7 7 7 4 3 3 2 3 5 7 8 9 10 12 9 7 8 8 5 5 4 4 4 6 9 9 7 5 5 7 7 9 11 11 10 8 8 7 5 7 3 2 3 4 3 7 7 10 11 8 7 9 13 14 13 14 14 14 14 14 13 13 14 13 13
21 18 16 14 11 8 6 6 4 2 10 14 10 8 3 2 3 3 4 5 2 5 5 6 7 7 6 7 6 5 6 5 6 9 11 11 11 8 6 8 8 3 4 7 7 6 5 3 1 2 3 7 9 8 9 10 9 9 8 7 6 6 8 3 4 3 4 5 8 8 9 10 7 7 9 12 13 12 12 14 13 13 13 13 14 14 14 14
20 17 15 12 9 6 4 3 3 4 11 14 11 8 3 3 4 4 5 5 1 4 2 2 3 4 3 2 5 10 8 4 3 7 12 12 9 7 6 6 6 5 5 7 7 9 7 1 4 2 3 5 7 7 8 8 7 8 7 6 6 6 8 7 3 4 6 7 7 8 8 6 3 5 7 9 11 12 12 14 14 13 13 13 14 14 14 14
19 16 14 10 6 3 2 2 3 5 10 10 10 8 5 5 5 4 5 4 2 4 3 3 2 1 2 2 6 9 7 6 4 5 11 12 8 6 4 3 5 6 5 5 5 8 8 2 5 6 5 6 7 6 7 7 6 6 5 3 6 7 8 9 8 7 6 4 3 4 6 3 1 2 4 7 10 12 12 14 15 14 13 13 13 13 14 15
17 15 12 8 2 4 4 2 5 7 9 7 4 6 5 5 5 4 5 4 3 3 2 3 2 3 4 4 7 7 6 6 4 5 10 10 6 4 4 4 4 5 1 3 5 5 4 3 6 9 7 6 7 6 6 6 7 4 4 2 5 7 8 9 8 6 6 3 1 2 5 4 3 3 4 7 9 11 12 13 15 14 13 13 12 12 13 14
15 12 11 6 4 9 4 3 8 8 5 4 4 5 4 5 5 5 4 4 4 2 1 2 1 2 2 4 8 7 4 7 7 6 8 9 6 4 5 4 4 3 1 3 4 2 3 5 6 7 7 6 6 5 5 6 8 2 7 4 5 7 9 9 8 6 5 5 2 4 4 6 5 1 5 6 7 9 11 13 14 14 14 15 14 13 14 14
12 10 9 5 6 11 5 5 7 4 1 3 4 5 4 4 7 5 6 2 4 1 0 4 2 1 2 4 7 4 1 6 7 7 7 8 7 5 6 5 3 2 4 6 3 4 4 5 5 6 6 6 5 3 3 6 8 2 6 3 5 6 8 7 7 6 4 5 4 3 3 6 5 2 6 5 5 7 10 13 14 15 16 16 15 15 15 15
11 9 7 5 5 8 8 7 4 1 3 2 2 3 3 6 6 5 5 1 3 1 1 3 2 4 5 6 5 3 2 2 2 5 9 8 6 4 4 3 5 4 5 8 6 1 2 3 3 5 6 5 5 3 1 6 6 2 2 4 5 5 7 5 6 5 3 6 4 1 1 5 6 1 4 4 3 3 5 9 12 14 16 15 15 15 15 14
11 9 7 7 7 6 8 6 2 1 2 0 1 2 5 6 4 6 3 2 1 1 2 2 2 4 7 8 5 4 4 3 4 7 9 7 7 5 3 1 5 7 6 9 10 9 7 4 3 6 8 8 7 3 2 6 5 2 3 6 6 5 5 4 5 4 5 6 3 3 2 5 5 3 3 2 1 2 1 2 7 12 14 15 14 14 14 14
12 11 9 8 7 5 6 5 2 1 2 2 1 4 6 5 5 4 3 2 0 2 2 2 3 5 9 7 4 5 4 5 7 9 8 6 8 8 5 4 5 6 7 7 8 9 9 8 6 7 10 10 9 5 4 5 5 4 6 6 6 5 4 4 5 3 5 4 1 3 3 5 5 3 4 3 0 2 1 1 4 11 14 14 14 13 13 13
13 14 12 10 9 5 2 2 2 4 3 1 4 6 5 4 4 1 4 2 2 1 1 2 3 4 7 5 3 5 4 5 7 8 7 6 7 6 5 4 2 4 5 3 2 4 7 8 7 7 7 9 9 7 6 6 7 6 6 6 6 5 4 5 5 4 4 3 0 2 3 5 6 5 6 6 2 3 4 1 2 7 12 14 14 14 13 12
13 14 14 13 12 9 6 4 4 5 2 3 6 6 5 4 2 3 2 1 1 3 2 0 1 2 6 6 5 5 3 3 5 6 4 5 5 4 5 4 4 5 4 3 4 5 4 4 6 7 6 8 10 8 5 5 7 8 7 6 6 5 5 6 5 3 4 2 2 1 2 5 5 3 4 5 2 1 1 3 2 4 9 13 14 14 13 13
11 12 13 13 14 13 9 5 6 7 1 5 6 5 5 2 3 1 1 4 4 2 1 1 3 5 5 3 4 4 4 3 5 4 5 6 5 3 4 3 4 6 5 5 4 4 5 2 4 4 4 7 9 10 7 5 4 7 6 6 6 6 5 6 5 4 4 3 1 3 2 5 4 2 2 2 3 3 1 2 3 4 6 10 13 14 13 13
9 10 11 11 12 15 13 7 7 7 2 6 6 4 3 2 3 0 2 5 3 2 2 2 5 8 6 2 4 3 2 2 6 5 4 4 2 1 1 1 0 3 5 5 1 2 6 3 2 2 2 4 6 6 5 7 6 4 3 6 6 6 5 6 7 6 7 7 3 2 3 4 5 4 2 2 3 4 4 3 5 7 7 8 11 13 13 13
4 5 7 7 9 14 13 8 8 6 4 6 5 1 1 3 3 3 4 5 5 4 1 4 5 5 6 5 5 5 1 1 7 6 3 2 2 3 1 2 3 2 3 4 3 2 5 2 3 1 4 5 4 3 3 6 4 2 4 6 2 3 6 7 6 5 6 7 4 3 4 3 3 2 3 1 3 3 5 6 7 9 9 9 9 11 12 13
2 2 3 6 12 15 12 8 7 5 6 6 2 3 3 3 4 5 6 6 5 4 5 4 2 2 3 5 4 6 5 4 7 6 4 4 2 4 1 1 2 3 4 5 4 2 5 5 1 3 4 4 1 4 5 6 5 4 3 1 1 2 6 6 5 4 6 7 4 4 5 5 3 0 3 1 1 2 5 7 8 9 10 10 9 10 12 13
4 4 0 8 15 16 12 8 5 5 6 3 3 4 2 3 5 6 6 6 4 4 6 1 2 2 2 3 4 5 4 5 7 5 3 4 2 3 2 0 2 2 4 4 4 1 3 6 0 1 1 3 2 4 5 5 7 8 4 3 2 5 4 3 5 6 6 6 4 3 4 4 3 1 3 5 4 2 7 8 9 10 10 9 9 10 11 12
5 6 1 9 16 15 11 6 3 6 4 2 4 4 2 4 6 7 6 5 4 4 4 3 2 1 1 1 2 3 1 1 5 5 2 2 2 2 3 2 1 3 3 3 4 2 2 5 1 4 2 0 3 6 5 5 7 7 6 3 4 5 4 3 4 4 5 5 4 4 4 2 1 4 7 9 7 2 6 9 9 10 10 9 8 9 10 11
4 4 3 11 18 14 9 5 4 3 1 2 3 3 2 3 5 7 8 5 4 4 4 4 2 1 3 2 2 2 2 2 2 3 1 1 2 3 4 4 4 5 3 4 4 2 2 3 3 2 2 4 5 3 3 2 2 5 5 4 5 4 3 4 4 5 5 6 4 4 5 2 2 3 5 6 5 2 3 6 7 8 9 8 7 8 9 10
4 2 3 13 19 13 7 5 1 1 2 4 4 5 3 3 5 6 7 6 4 4 5 6 5 3 3 2 2 3 2 1 1 0 1 1 2 1 4 5 7 6 4 5 3 2 2 3 5 6 4 6 4 3 6 7 5 5 4 3 3 3 4 5 6 5 4 6 6 5 6 3 2 3 3 4 1 1 2 4 6 7 8 8 7 7 7 8
4 0 4 15 19 12 6 1 3 1 2 4 4 5 4 4 5 6 7 6 4 4 4 6 6 5 5 3 3 3 2 1 1 1 1 2 2 4 5 6 8 7 5 4 0 3 4 4 6 7 6 7 6 5 4 5 5 5 4 3 3 4 5 6 5 4 4 5 5 5 7 3 4 3 2 3 1 2 2 2 4 7 8 8 8 7 7 7
2 3 5 14 16 10 5 2 4 2 4 4 3 4 5 4 6 7 7 7 5 4 4 5 5 5 5 5 4 2 3 2 1 1 2 3 4 5 4 6 9 7 4 3 1 2 2 4 5 7 7 5 1 3 3 4 4 4 2 2 3 4 5 6 6 5 4 5 4 5 7 3 3 3 2 2 1 2 3 2 4 7 7 7 8 7 7 7
4 3 4 13 14 7 4 2 3 4 5 4 4 6 5 6 8 8 9 9 7 5 4 5 5 5 5 4 3 3 4 2 0 1 1 1 3 4 3 6 8 6 4 5 4 3 3 3 3 7 8 4 4 4 5 5 2 1 1 2 3 4 6 7 6 5 5 7 7 7 6 2 3 3 2 3 1 3 4 3 4 7 7 7 8 7 7 8
2 0 2 10 13 6 2 3 2 4 6 5 6 5 3 5 7 7 7 9 8 7 5 4 4 4 4 2 0 2 4 3 1 0 1 1 3 3 2 6 6 4 6 7 7 5 5 4 4 6 8 6 5 3 1 0 2 4 3 4 4 3 5 6 5 6 7 6 7 7 6 4 3 7 7 7 5 2 2 3 4 7 7 8 8 7 8 8
1 1 2 4 7 7 5 4 4 2 3 2 3 4 3 4 5 5 6 6 7 7 6 5 4 3 4 4 2 1 2 3 2 1 2 2 1 2 3 6 5 3 6 9 8 5 5 5 6 8 9 9 7 5 4 5 6 7 6 7 7 4 4 5 5 6 5 4 6 6 7 8 3 9 11 11 10 7 2 2 5 6 7 7 8 8 8 8
1 2 3 2 3 4 4 4 5 3 2 1 1 2 4 3 3 3 4 5 6 6 4 4 5 4 4 6 5 3 3 2 2 2 2 3 2 2 4 5 2 1 5 7 5 4 5 6 8 11 11 12 11 7 6 7 9 10 10 10 10 7 6 6 7 6 5 5 7 1 4 7 5 9 11 12 11 10 6 3 4 5 6 7 8 8 9 9
3 2 3 3 2 3 3 4 5 4 4 3 1 2 3 4 3 3 4 4 4 5 3 2 5 6 6 6 5 4 4 4 3 2 2 2 4 5 4 3 2 1 3 5 3 3 6 8 9 11 12 13 13 10 9 10 10 11 11 12 12 10 9 8 10 9 6 6 8 4 5 8 5 7 10 11 11 9 8 5 3 5 6 7 9 10 9 9
3 2 2 2 2 3 4 3 3 3 5 4 2 3 4 5 5 4 4 4 2 5 6 3 4 6 6 5 5 4 4 4 2 2 3 4 6 6 5 4 2 2 2 5 3 2 4 6 8 11 13 13 13 13 12 11 11 12 12 13 13 12 10 9 10 8 7 9 10 9 11 8 4 8 9 10 9 7 5 4 3 5 7 8 10 11 10 9
3 2 2 1 2 4 3 1 2 1 3 2 1 3 3 4 5 4 3 5 4 4 5 4 5 7 6 5 5 4 3 4 4 3 5 6 5 4 3 3 1 1 5 6 3 2 2 4 5 7 10 12 13 14 14 12 13 13 14 14 13 12 11 10 8 5 6 9 8 9 11 5 5 9 10 8 8 6 3 3 4 5 7 9 10 10 11 10
4 2 3 2 2 3 2 2 1 1 3 2 2 3 2 3 5 4 2 4 5 4 5 5 6 6 5 4 6 5 3 5 7 7 8 8 7 5 4 3 5 6 6 5 4 3 4 5 5 6 9 10 11 12 12 12 13 15 16 16 16 15 11 6 3 2 3 6 6 7 8 3 5 10 10 7 8 7 4 1 4 5 5 7 9 10 11 11
4 0 3 4 1 2 2 1 1 1 2 3 3 2 2 2 3 4 2 1 1 3 4 5 6 5 4 4 4 5 6 8 10 10 9 9 10 9 8 9 10 9 7 6 5 4 5 5 5 6 7 8 8 8 7 9 12 12 10 10 12 13 9 3 3 2 1 3 5 5 4 5 8 9 9 8 9 7 5 3 2 4 4 6 8 8 10 11
Wind_Direction
358 359 358 354 352 351 348 346 343 341 339 338 337 336 335 332 329 327 321 314 312 310 306 297 283 282 289 292 302 304 309 308 299 275 254 262 254 241 244 237 245 225 205 178 173 176 173 185 176 188 235 236 263 338 317 292 313 286 299 339 10 23 18 6 346 353 344 335 4 20 308 294 147 155 168 177 200 165 145 134 110 98 77 89 109 123 138 144
359 359 357 355 354 352 349 347 343 341 337 336 334 333 333 329 328 325 321 316 310 309 306 294 278 277 284 291 302 304 314 307 280 267 260 266 261 251 245 228 237 219 186 181 185 192 198 191 180 201 251 270 261 351 269 234 283 294 330 338 29 21 5 356 337 339 334 332 347 346 318 301 275 154 174 191 173 164 160 144 143 125 106 111 122 133 144 149
358 358 356 355 353 351 350 347 344 342 338 334 331 331 330 327 326 322 319 317 312 311 303 287 274 272 281 292 300 309 324 298 269 264 256 267 252 240 232 216 223 205 180 189 198 205 226 214 189 211 273 288 339 322 283 168 231 310 332 333 39 20 348 4 343 330 336 330 328 336 337 257 217 159 193 217 181 179 178 151 161 150 133 134 136 143 151 155
355 354 353 352 350 350 348 346 344 342 338 333 330 329 327 326 322 320 318 315 312 310 299 277 263 264 280 290 302 324 314 277 259 83 106 54 238 214 211 207 207 194 186 198 202 206 239 210 190 227 278 283 317 284 286 113 274 319 313 335 19 3 344 28 9 335 342 325 320 329 313 256 196 199 222 227 182 205 200 149 173 156 145 147 147 154 160 161
351 349 349 348 347 346 345 345 344 342 338 333 330 327 326 323 320 319 316 314 314 308 292 261 249 254 273 285 319 339 286 265 102 74 68 28 22 189 196 200 192 183 184 191 188 194 210 195 192 227 262 281 304 275 324 44 298 292 287 338 358 335 341 27 22 350 335 306 308 316 314 356 190 216 229 228 174 201 332 126 173 149 144 150 154 160 165 166
348 346 344 343 342 342 341 342 341 339 338 333 329 326 323 321 320 319 315 316 312 301 276 242 238 245 262 280 3 317 268 298 78 32 346 346 327 182 185 190 178 172 179 184 182 190 193 191 210 234 256 271 299 318 360 17 293 284 330 357 354 339 342 7 32 4 308 302 310 327 343 337 246 211 216 239 193 144 2 92 164 142 139 147 153 162 170 171
347 345 341 340 339 338 338 337 337 336 335 332 329 324 321 320 319 317 316 316 307 291 255 229 226 233 240 173 359 245 254 290 62 359 331 287 253 177 177 174 168 169 180 185 184 192 190 200 222 252 269 265 305 334 348 342 267 280 327 355 350 345 341 323 12 231 288 318 330 325 294 273 261 199 185 227 195 165 120 128 146 138 139 146 154 165 172 172
346 343 340 338 336 336 335 333 334 333 332 331 328 323 320 319 318 317 317 312 297 270 240 220 216 220 179 160 270 252 241 314 35 329 329 279 178 166 165 162 168 174 183 191 190 193 198 213 228 252 260 272 340 332 335 318 234 267 322 345 330 319 60 232 245 256 297 329 316 277 253 251 301 316 260 194 164 166 139 130 141 144 144 148 159 168 171 172
344 341 339 336 335 333 332 331 330 329 329 328 327 323 318 317 316 317 314 304 278 254 235 216 211 196 159 196 267 264 222 45 17 327 348 150 161 159 158 162 174 178 185 193 196 200 203 217 227 251 279 305 326 314 326 315 286 345 324 328 314 295 143 202 224 229 301 343 279 268 247 201 175 256 225 168 162 157 141 138 145 151 150 150 161 168 169 171
343 340 336 334 333 331 330 329 327 326 325 325 325 322 317 314 315 316 311 293 260 248 229 218 203 176 172 231 256 250 81 56 37 43 105 155 156 158 163 168 173 181 187 189 198 205 210 232 240 260 287 284 281 301 322 325 338 342 317 314 307 265 198 216 232 219 247 321 258 271 264 189 165 229 209 150 162 161 146 147 149 153 153 153 160 165 170 173
342 339 335 332 331 330 329 327 326 324 322 323 324 321 315 312 314 313 304 278 256 248 227 219 197 179 205 252 250 247 84 79 48 50 127 158 158 164 173 172 173 184 187 188 201 208 217 250 281 246 263 268 264 281 328 348 324 324 312 292 251 229 222 220 230 217 226 225 228 270 276 236 193 217 189 147 161 163 156 154 152 154 156 158 160 165 174 176
340 337 333 330 328 328 327 326 324 321 319 320 321 319 313 310 311 307 289 268 260 250 230 214 193 177 228 252 246 270 89 118 16 36 140 155 163 176 180 178 182 192 192 199 208 210 226 262 251 240 273 328 276 282 6 351 304 298 292 288 274 247 229 208 214 208 233 233 181 266 274 227 208 196 151 152 162 164 165 162 156 156 162 163 162 167 176 176
338 334 331 328 326 325 325 324 322 319 318 319 319 316 310 309 305 290 271 263 258 247 223 193 180 175 243 256 228 243 240 251 303 116 156 161 166 177 182 183 191 205 214 222 219 214 229 242 245 254 301 288 278 341 315 279 282 269 255 288 291 262 204 172 190 192 212 167 160 264 298 159 182 173 152 155 163 167 173 170 162 160 166 169 167 171 176 176
336 331 328 325 323 322 322 322 320 317 316 317 316 313 311 305 287 259 252 251 249 236 191 169 168 174 249 266 108 232 247 252 234 169 165 170 154 145 162 178 192 204 219 224 215 225 228 223 244 268 275 264 290 333 266 241 241 272 262 257 273 291 128 155 179 186 199 148 169 250 306 61 128 156 160 161 167 173 180 175 168 165 169 174 175 179 177 176
333 329 325 321 320 320 319 319 318 315 315 317 314 314 309 284 242 232 238 235 228 171 136 147 167 188 258 251 177 246 255 214 201 183 172 171 157 143 153 170 184 189 201 203 171 126 203 200 222 253 227 225 267 265 262 255 229 260 275 249 238 309 117 154 166 195 230 143 179 227 299 360 102 148 162 167 175 181 188 180 173 174 174 178 182 185 181 178
331 327 322 319 318 317 315 316 315 314 316 317 316 314 297 222 203 215 178 139 139 131 124 142 180 223 280 254 152 215 213 184 185 176 173 180 173 136 141 155 163 173 187 188 192 165 174 195 216 263 243 215 244 252 270 272 229 212 258 286 298 313 328 137 158 194 235 171 192 217 282 319 96 144 162 173 184 189 195 189 178 180 178 179 188 190 185 182
329 324 321 316 316 314 311 312 312 314 319 321 323 329 136 130 121 116 116 120 119 119 125 175 175 224 271 243 191 203 174 163 161 162 170 183 171 135 140 153 153 159 166 161 188 195 184 199 208 238 238 234 250 263 266 262 235 184 232 293 295 307 319 318 152 171 205 229 235 226 243 284 273 158 170 179 187 195 201 196 185 185 183 181 190 194 187 186
328 324 319 314 314 310 306 308 309 315 324 331 24 110 111 113 112 104 112 115 108 117 156 206 189 239 230 201 212 118 114 134 146 152 158 161 158 153 153 155 147 154 163 162 182 195 189 196 213 228 226 226 239 245 250 280 329 323 311 307 301 308 306 316 4 113 217 252 267 251 243 265 263 193 184 184 188 198 203 200 194 189 187 185 190 196 191 191
329 324 318 313 311 305 302 305 303 314 336 87 117 110 105 113 118 126 162 152 157 189 210 170 195 281 108 152 133 91 89 119 143 152 158 160 162 170 168 155 159 170 179 174 178 190 200 200 210 233 232 226 230 240 263 308 326 312 304 298 300 304 299 330 357 10 295 285 271 267 267 272 268 216 195 190 189 199 203 200 200 194 191 189 190 196 195 194
330 325 319 314 310 301 300 299 295 306 156 143 132 131 134 148 178 173 184 206 226 264 319 176 202 264 75 128 121 114 135 151 168 168 164 167 169 178 184 176 181 194 205 194 173 175 213 228 220 232 243 245 248 257 277 295 300 294 291 286 288 293 299 334 348 7 325 294 287 283 279 281 280 241 201 193 191 199 203 200 200 199 195 193 192 195 197 197
332 327 320 314 309 299 298 292 281 283 190 165 163 214 262 316 293 93 177 217 221 247 274 244 238 268 292 69 71 68 196 182 175 159 162 173 180 184 180 187 203 199 198 206 162 148 208 239 236 240 256 272 266 265 277 281 279 276 278 281 284 289 306 325 340 43 152 264 298 296 282 282 277 252 205 193 197 200 202 201 200 200 198 197 196 196 198 197
334 329 321 313 307 299 295 279 270 276 187 173 188 245 297 359 335 348 314 248 207 220 254 248 254 267 263 258 264 311 273 198 163 153 162 177 189 193 168 186 217 197 167 199 220 200 216 238 245 248 256 250 250 259 266 267 269 268 266 273 278 298 310 311 139 148 170 245 305 310 294 288 273 250 211 198 203 205 203 203 202 201 200 199 198 196 197 197
335 329 320 312 307 296 284 264 263 239 176 176 202 240 266 356 321 295 275 279 192 171 227 233 245 250 228 233 224 216 237 217 175 159 166 184 194 203 190 195 220 214 179 209 230 238 233 233 244 247 233 235 241 243 250 257 256 253 257 268 282 314 316 320 131 178 214 246 295 306 293 284 267 237 214 204 208 209 205 207 206 205 205 203 202 197 194 198
336 330 321 315 307 289 271 241 244 212 182 192 223 237 240 284 297 277 253 273 196 146 175 205 249 251 220 214 184 198 216 226 210 150 162 190 189 187 211 211 221 230 219 223 236 253 265 56 98 146 217 239 242 225 230 245 242 234 239 269 300 321 319 320 326 296 255 231 259 292 291 281 238 216 213 198 204 211 206 207 207 207 210 209 210 202 192 200
338 332 327 320 304 263 217 209 223 192 178 199 235 233 237 275 279 258 251 259 160 136 147 164 196 195 141 138 170 193 209 211 229 149 162 197 190 169 206 219 234 237 208 216 237 252 265 202 167 228 246 240 244 230 223 235 253 235 202 252 310 318 314 310 313 305 283 231 202 293 309 327 72 258 235 182 192 209 204 205 207 204 207 209 214 210 197 199
338 335 334 329 298 166 156 164 159 159 172 188 211 202 222 281 258 222 254 249 147 120 147 170 184 132 134 167 165 174 199 194 193 142 163 197 199 195 218 175 221 268 198 217 251 255 259 185 200 248 260 237 237 240 218 222 258 249 120 69 314 306 302 302 304 294 300 330 136 250 303 319 334 291 232 184 190 206 202 207 210 203 202 205 210 211 204 202
340 338 342 345 156 158 140 115 146 157 177 169 166 195 249 278 213 188 249 221 127 62 127 127 121 119 119 163 166 180 181 138 137 149 173 192 186 210 236 184 191 246 202 241 252 198 190 194 204 238 252 238 231 228 191 205 253 277 71 30 297 298 301 303 301 282 301 327 257 215 266 293 305 237 178 183 202 207 205 209 210 205 203 204 206 207 206 204
348 347 352 7 160 173 157 128 158 180 110 114 172 218 271 239 185 201 260 201 92 347 173 85 76 125 113 153 179 212 102 128 156 155 163 188 187 207 232 230 240 207 186 240 254 115 157 205 210 228 241 236 234 238 165 210 253 330 54 337 297 298 295 297 293 281 301 309 274 191 231 285 314 109 145 178 219 219 215 213 209 206 203 202 206 206 206 204
2 2 9 43 130 172 167 150 181 223 88 107 207 236 230 188 184 237 257 113 79 247 109 96 143 143 138 157 180 208 160 172 195 126 145 178 199 247 256 250 269 253 213 241 264 293 212 222 246 259 255 247 252 269 214 228 254 13 37 280 275 268 276 283 279 283 288 283 299 38 225 293 319 21 144 179 236 246 222 211 206 204 202 200 203 204 204 203
20 22 40 68 87 134 157 154 180 128 99 294 272 199 191 183 218 241 201 91 54 111 95 154 156 136 163 169 162 174 163 111 95 134 155 175 190 220 285 290 257 257 237 236 252 263 257 223 229 256 249 256 273 278 237 248 263 319 267 261 256 242 261 277 268 287 283 268 316 16 320 293 305 335 38 60 330 324 354 169 190 196 198 197 199 202 201 199
40 45 64 77 81 118 151 138 123 351 349 321 181 181 196 203 249 245 126 75 8 117 134 160 115 150 188 189 153 149 149 114 131 160 164 168 186 202 228 221 224 245 241 230 233 242 241 222 208 222 227 241 259 246 218 235 241 247 251 263 270 248 235 253 241 240 269 272 11 12 317 284 280 320 356 7 151 239 288 80 165 186 192 192 193 198 197 194
58 59 66 70 72 76 57 60 21 329 328 283 184 196 222 219 224 86 89 154 221 85 80 117 104 164 193 215 184 151 144 120 148 178 179 181 191 195 220 231 256 260 243 232 236 244 244 227 205 201 206 222 238 226 199 202 211 228 242 253 268 262 240 249 246 233 259 272 336 329 318 282 278 308 316 316 307 230 231 212 159 175 187 188 187 192 194 191
69 63 62 56 52 40 8 360 353 342 330 213 201 213 249 232 147 56 66 138 55 37 21 66 133 174 192 202 172 159 169 121 148 185 190 202 210 193 205 246 295 288 280 312 310 285 256 184 175 194 189 196 222 228 215 201 199 211 231 241 252 270 273 267 263 253 258 246 154 151 303 275 273 301 295 302 4 74 225 221 201 173 180 185 184 186 189 191
77 67 59 44 32 21 1 348 352 355 332 212 213 219 242 213 100 66 39 58 42 32 18 211 162 163 192 194 139 167 202 145 155 186 179 198 222 209 187 202 253 266 277 281 288 292 278 188 160 194 157 164 205 233 267 300 244 218 238 258 262 273 284 286 292 301 303 307 153 158 249 301 320 355 287 257 125 124 147 204 194 175 171 180 181 182 185 190
81 65 50 36 19 6 356 346 348 349 297 220 225 226 227 117 92 139 40 38 357 6 81 152 166 163 169 144 130 180 265 148 169 191 192 197 211 268 229 94 115 265 273 275 302 310 276 266 95 67 101 173 210 227 268 286 263 228 232 249 261 277 279 281 293 309 311 306 294 215 253 305 316 327 311 249 206 189 173 164 181 172 161 170 177 181 184 187
81 48 43 38 9 356 352 348 344 335 268 233 225 185 83 59 33 353 13 353 317 337 51 163 175 178 157 139 147 164 249 199 177 182 162 144 96 63 23 47 41 311 296 298 311 303 275 279 96 132 200 206 265 304 246 252 255 180 214 236 267 312 291 282 275 278 279 275 270 254 266 287 287 323 35 332 261 219 171 164 175 168 159 167 176 181 185 186
259 296 20 24 3 354 350 347 336 301 252 252 223 88 59 50 17 354 350 325 312 309 274 194 164 261 160 145 139 145 168 177 181 196 171 157 120 60 47 74 50 334 328 305 293 346 309 298 257 250 236 156 24 298 238 241 261 236 225 275 28 268 265 277 273 259 257 262 260 252 271 305 307 15 84 65 277 212 189 170 164 163 164 172 178 182 186 187
258 253 328 18 359 347 347 348 322 258 241 241 109 88 32 47 30 0 346 326 307 277 277 263 80 303 213 158 122 126 183 190 175 192 176 169 158 33 344 101 111 327 327 277 256 36 307 291 335 112 317 112 138 248 220 200 232 252 295 352 273 255 238 219 256 270 268 269 272 268 282 304 303 335 19 8 6 237 196 175 168 173 174 178 178 179 185 187
264 250 147 17 352 343 346 347 282 245 228 168 116 104 50 55 42 10 1 342 309 292 305 15 43 330 26 48 94 112 257 240 166 182 187 179 150 54 1 6 26 337 345 245 254 344 288 283 24 119 116 325 216 230 223 176 186 230 271 246 224 268 280 249 266 281 279 277 277 285 288 287 340 2 357 360 358 300 189 180 186 184 179 180 175 174 181 184
278 258 105 8 348 348 340 301 249 241 188 104 84 94 74 46 42 23 14 5 344 342 359 23 18 34 59 43 50 60 6 20 148 194 195 156 146 88 42 11 340 345 351 235 249 323 264 260 283 225 235 258 229 220 284 306 179 211 230 211 201 217 240 261 271 267 277 283 281 282 280 290 46 29 360 0 354 308 199 190 194 186 180 176 166 169 178 182
276 245 72 358 346 345 314 271 208 49 103 101 76 73 60 1 11 28 23 18 26 28 29 37 39 47 47 39 52 32 356 86 104 207 131 149 192 96 52 13 338 332 306 249 237 354 318 270 280 288 281 267 276 342 319 300 292 280 274 272 265 248 239 243 238 232 252 272 280 288 282 292 71 82 20 12 12 201 197 199 191 183 178 164 153 162 170 178
275 253 23 350 344 334 295 238 99 41 77 100 75 52 42 350 354 18 19 17 35 40 39 45 42 44 39 20 26 17 346 53 43 324 74 77 50 46 44 7 336 317 297 278 76 36 341 285 276 282 278 279 307 342 306 252 245 262 277 306 307 284 267 256 247 237 235 251 270 279 276 295 75 83 39 29 70 136 134 204 188 171 164 149 145 153 156 169
3 38 8 351 346 319 280 121 119 113 77 92 93 56 47 27 16 23 22 17 25 27 39 54 34 33 42 17 6 10 350 3 24 16 62 99 80 57 33 2 344 323 310 314 5 34 316 270 280 287 280 270 191 98 119 160 179 200 213 340 315 294 290 282 288 297 264 246 252 251 256 267 77 59 30 56 111 150 134 174 176 151 142 139 140 143 147 155
27 37 18 5 360 316 263 102 116 118 94 104 111 83 70 52 29 24 29 26 21 11 29 59 39 28 36 9 9 32 355 328 159 76 38 139 92 66 28 1 349 341 11 9 351 350 308 274 299 293 281 248 190 170 160 159 170 272 311 353 326 318 309 281 274 281 257 250 259 261 266 268 103 88 53 59 91 148 128 151 167 144 139 141 137 139 142 144
343 149 53 21 23 28 45 31 33 108 110 111 97 74 77 83 47 25 30 31 24 13 17 48 28 3 12 350 17 62 7 334 335 93 227 212 110 104 36 357 337 340 22 0 327 311 291 288 303 290 282 270 256 259 246 246 323 293 281 315 318 325 315 288 265 246 238 241 254 262 276 280 90 74 47 31 26 46 106 146 158 142 141 142 138 142 143 142
326 23 38 34 44 57 69 41 16 75 104 108 95 51 34 94 83 34 23 31 34 24 18 30 6 329 351 345 304 13 19 352 352 334 240 265 112 112 357 336 310 329 354 330 308 292 277 276 274 267 271 280 288 311 326 316 304 286 285 300 299 308 314 291 264 248 256 252 243 260 293 287 325 49 35 19 12 360 349 180 163 143 143 142 138 141 141 141
14 26 13 7 49 62 77 57 29 38 50 354 12 32 22 62 94 50 34 35 30 16 12 41 26 360 9 358 321 309 350 328 309 303 279 296 317 311 308 292 254 359 330 305 303 299 273 266 264 259 260 269 278 284 284 282 282 282 286 287 288 299 299 274 260 275 309 274 242 283 3 288 304 34 25 9 2 348 326 249 185 155 150 147 141 141 140 141
34 58 23 328 328 37 52 37 21 38 61 47 33 28 25 42 47 44 42 32 19 6 348 66 50 29 23 4 326 312 330 304 278 305 322 318 321 316 299 257 196 132 288 288 328 328 276 270 274 269 265 268 270 268 266 270 270 270 274 278 283 286 284 278 273 278 292 272 263 322 337 291 317 25 16 4 355 334 319 295 223 166 158 152 148 150 148 149
43 85 60 324 338 41 43 13 350 38 62 53 56 48 28 36 43 42 20 349 8 26 355 342 38 18 6 1 331 318 337 315 294 26 7 329 321 314 296 268 207 133 313 307 338 349 280 274 278 277 275 272 269 267 266 265 265 264 264 268 273 276 279 284 283 277 271 267 271 292 299 298 12 24 3 356 344 326 316 293 241 179 171 165 160 161 161 161
20 38 17 346 71 51 39 17 308 114 80 42 66 63 33 28 34 31 15 348 351 31 3 346 5 350 339 349 326 314 1 338 311 329 333 316 313 309 298 293 286 342 329 321 327 343 288 279 293 291 280 272 267 267 264 259 262 265 263 263 266 267 266 264 265 268 267 267 273 287 285 284 51 18 352 345 335 328 313 248 227 199 185 178 172 170 167 170
6 5 321 305 68 20 338 47 330 225 88 46 47 65 40 42 28 352 355 13 354 2 4 348 346 333 317 317 309 309 353 332 303 303 305 296 295 302 298 299 311 316 318 314 315 314 284 276 286 277 268 270 269 265 262 265 268 265 263 262 256 251 253 252 241 258 278 275 278 279 275 290 18 354 341 343 341 338 339 253 215 211 204 194 189 179 172 173
347 326 293 285 64 14 322 77 20 276 76 47 40 51 11 37 28 315 284 111 347 357 2 335 326 321 296 291 325 339 338 318 302 298 296 284 279 281 276 275 286 292 291 293 297 292 277 277 278 267 266 271 269 271 285 286 273 263 267 276 258 240 232 203 144 121 313 284 278 278 302 352 349 339 337 340 342 343 351 358 290 238 229 219 213 195 181 177